STARLINK-11598, 63113

Orbit data source: Space-Track

STARLINK-11598, 63113 is a payload satellite owned by SpaceX/Seattle (US) in LEO that was launched on Thu, 27 Feb 2025 UTC via an FALCON 9 launch vehicle from the Air Force Eastern Test Range (AFETR). Payload-class satellites include a variety of spacecraft equipped with specific instruments for various scientific and technological missions. These include communications satellites like Starlink; space stations such as the ISS; scientific satellites like the Hubble; Earth observation satellites from companies like Planet Labs, Umbra, and HawkEye 360; GPS; miniature CubeSats for education and research; and military/defense satellites.

Loading next visibility...
Identifier
63113, 2025-039K
Orbit
LEO
Last TLE update
13 hours ago
Origin
Manufacturer
SpaceX/Seattle
Mission
Operational Commercial Communications
Bus & Motor
STARLINK V2M, Unknown motor
Mass
730 kg wet, ~700 kg dry
Launch date (UTC)
2025-02-27 (2 months ago)
Launch vehicle
FALCON 9
Launch site
Air Force Eastern Test Range (AFETR)
Object type
Payload
Rocket body
Debris
Shape & HBR
Box + 2 Pan, 29 m
Radar Cross Section
36.964 m², Large (>1 m²)

Expand to show TLE details & history

TLE from 13 hours ago
0 STARLINK-11598
1 63113U 25039K   25128.69930971  .00000308  00000-0  46386-5 0  9998
2 63113  43.0000 276.5474 0001937 275.7242  84.3408 15.77861205 11637
Epoch: 2025-05-08T16:47Z
Definitive object data (Epoch: 2025-05-08T16:47:00.358Z)
Latitude
0.00001°
Longitude
158.02986°
Altitude
336.144 km
Speed
7.709 km/s
True Right ascension
18h 26m 11s
True Declination
0° 00' 00"
Sunlit
Object was in full shadow at TLE epoch
Visualization TLE readout
Latitude
-40.83837°
Longitude
87.46234°
Altitude
347.566 km
Speed
7.701 km/s
Apparent Right ascension
09h 00m 30s
Apparent Declination
-84° 51' 01"
Sunlit
Object is in full shadow
Visualization observer readout
Local Sidereal Time
14:17:41
Azimuth
186.496° SSW
Elevation
-38.777°
Doppler factor
1
Orbital elements
Apogee altitude
339.79 km
Perigee altitude
337.188 km
Semi-major axis
6,716.626 km
Eccentricity
0.0001937
Inclination
43°
RAAN
276.5474°
Arg. of periapsis
275.7242°
True anomaly
84.36289°
Mean anomaly
84.3408°
Eccentric anomaly
84.35184°
Mean motion
3.94291 °/min
BSTAR
0.0000046386
Orbital period
91.3 mins
Loading maneuver chart data...
Loading SW <> Apogee altitude chart data...
Loading historical data...
Loading historical data...
Loading historical data...
Loading historical data...
Loading historical data...
Loading historical data...
Loading historical data...

STARLINK-11598 Visibility forecast

Observer location: undefined°, undefined°

Span
Click to sort rows by Start time (UTC) header in descending order
Start Az.
Max El. time (UTC)
Max El. Az.
Max El.
End time (UTC)
End Az.
4 mins2025-05-09 12:43:53.995Z198.211° SSW2025-05-09 12:45:53.995Z151.075° SSE19.408°2025-05-09 12:47:53.995Z100.567° ESE
4 mins2025-05-09 14:19:53.995Z260.555° W2025-05-09 14:21:53.995Z51.024° ENE39.752°2025-05-09 14:23:53.995Z69.592° E
4 mins2025-05-09 15:55:53.995Z301.73° NW2025-05-09 15:56:53.995Z336.124° NNW31.97°2025-05-09 15:59:53.995Z73.78° E
4 mins2025-05-09 17:31:53.995Z290.216° WNW2025-05-09 17:32:53.995Z301.415° NW43.897°2025-05-09 17:35:53.995Z107.505° ESE
|